Location: Unspecified
(54.1780°N, 0.0000°E)
Time: 23:45:36
(UTC+00:00)

Transit 4A - All Passes

Search period start: 17 June 2019 00:00
Search period end: 27 June 2019 00:00
Orbit: 862 x 983 km, 66.8° (Epoch: 17 June)

Date Brightness Start Highest point End Pass type
(mag) Time Alt. Az. Time Alt. Az. Time Alt. Az.
17 Jun - 08:19:03 10° SSE 08:23:50 23° ESE 08:28:41 10° ENE daylight
17 Jun - 10:03:05 10° SW 10:09:26 85° SE 10:15:55 10° NE daylight
17 Jun - 11:50:35 10° W 11:56:31 38° NNW 12:02:30 10° NE daylight
17 Jun - 13:39:17 10° WNW 13:44:38 27° N 13:49:59 10° NE daylight
17 Jun - 15:26:53 10° NW 15:32:48 36° NNE 15:38:38 10° E daylight
17 Jun - 17:13:30 10° NW 17:19:59 89° NE 17:26:19 10° SE daylight
17 Jun - 19:00:36 10° WNW 19:05:41 25° WSW 19:10:40 10° SSW daylight
18 Jun - 08:27:28 10° S 08:32:54 31° ESE 08:38:25 10° NE daylight
18 Jun - 10:12:28 10° SW 10:18:50 76° NW 10:25:19 10° NE daylight
18 Jun - 12:00:26 10° W 12:06:11 33° NNW 12:11:59 10° NE daylight
18 Jun - 13:49:02 10° NW 13:54:26 27° N 13:59:47 10° ENE daylight
18 Jun - 15:36:21 10° NW 15:42:27 42° NNE 15:48:27 10° ESE daylight
18 Jun - 17:22:55 10° NW 17:29:19 72° SW 17:35:35 10° SSE daylight
18 Jun - 19:10:32 10° WNW 19:14:41 18° WSW 19:18:47 10° SW daylight
19 Jun - 08:36:10 10° S 08:42:02 42° ESE 08:48:01 10° NE daylight
19 Jun - 10:21:59 10° WSW 10:28:17 61° NW 10:34:42 10° NE daylight
19 Jun - 12:10:20 10° WNW 12:15:55 30° NNW 12:21:31 10° NE daylight
19 Jun - 13:58:43 10° NW 14:04:12 28° N 14:09:39 10° ENE daylight
19 Jun - 15:45:46 10° NW 15:52:02 50° NE 15:58:11 10° ESE daylight
19 Jun - 17:32:22 10° NW 17:38:36 55° WSW 17:44:42 10° SSE daylight
19 Jun - 19:21:00 10° WNW 19:23:37 13° W 19:26:14 10° SW daylight
20 Jun - 07:03:25 10° SE 07:06:11 13° E 07:08:59 10° ENE daylight
20 Jun - 08:45:05 10° SSW 08:51:14 56° ESE 08:57:31 10° NE daylight
20 Jun - 10:31:38 10° WSW 10:37:49 50° NW 10:44:06 10° NE daylight
20 Jun - 12:20:12 10° WNW 12:25:40 28° N 12:31:08 10° NE daylight
20 Jun - 14:08:21 10° NW 14:13:57 30° NNE 14:19:31 10° ENE daylight
20 Jun - 15:55:09 10° NW 16:01:34 62° NE 16:07:49 10° ESE daylight
20 Jun - 17:41:52 10° NW 17:47:48 41° WSW 17:53:36 10° S daylight
21 Jun - 07:10:56 10° SSE 07:15:08 19° ESE 07:19:23 10° ENE daylight
21 Jun - 08:54:13 10° SSW 09:00:31 73° SE 09:06:58 10° NE daylight
21 Jun - 10:41:23 10° W 10:47:25 42° NNW 10:53:31 10° NE daylight
21 Jun - 12:30:04 10° WNW 12:35:27 27° N 12:40:49 10° NE daylight
21 Jun - 14:17:53 10° NW 14:23:40 33° NNE 14:29:23 10° E daylight
21 Jun - 16:04:33 10° NW 16:11:02 77° NE 16:17:20 10° SE daylight
21 Jun - 17:51:28 10° NW 17:56:56 31° WSW 18:02:18 10° S daylight
22 Jun - 07:19:05 10° SSE 07:24:09 26° ESE 07:29:17 10° NE daylight
22 Jun - 09:03:30 10° SW 09:09:52 88° NW 09:16:22 10° NE daylight
22 Jun - 10:51:12 10° W 10:57:03 36° NNW 11:02:59 10° NE daylight
22 Jun - 12:39:53 10° NW 12:45:14 27° N 12:50:34 10° ENE daylight
22 Jun - 14:27:22 10° NW 14:33:21 38° NNE 14:39:15 10° E daylight
22 Jun - 16:13:57 10° NW 16:20:25 84° SW 16:26:43 10° SE daylight
22 Jun - 18:01:13 10° WNW 18:05:59 23° WSW 18:10:41 10° SSW daylight
23 Jun - 07:27:37 10° S 07:33:15 35° ESE 07:38:58 10° NE daylight
23 Jun - 09:12:56 10° SW 09:19:18 71° NW 09:25:46 10° NE daylight
23 Jun - 11:01:04 10° W 11:06:46 32° NNW 11:12:28 10° NE daylight
23 Jun - 12:49:36 10° NW 12:55:01 27° N 13:00:23 10° ENE daylight
23 Jun - 14:36:48 10° NW 14:42:58 45° NNE 14:49:02 10° ESE daylight
23 Jun - 16:23:22 10° NW 16:29:44 66° WSW 16:35:56 10° SSE daylight
23 Jun - 18:11:17 10° WNW 18:14:58 16° WSW 18:18:37 10° SW daylight
24 Jun - 05:57:03 10° ESE 05:57:34 10° E 05:58:04 10° E daylight
24 Jun - 07:36:24 10° S 07:42:24 47° ESE 07:48:31 10° NE daylight
24 Jun - 09:22:30 10° WSW 09:28:47 57° NW 09:35:09 10° NE daylight
24 Jun - 11:10:57 10° WNW 11:16:29 29° NNW 11:22:02 10° NE daylight
24 Jun - 12:59:16 10° NW 13:04:47 29° NNE 13:10:15 10° ENE daylight
24 Jun - 14:46:13 10° NW 14:52:32 54° NE 14:58:44 10° ESE daylight
24 Jun - 16:32:51 10° NW 16:38:59 49° WSW 16:44:59 10° SSE daylight
24 Jun - 18:22:18 10° W 18:23:53 11° W 18:25:27 10° WSW daylight
25 Jun - 06:03:03 10° SE 06:06:27 15° ESE 06:09:54 10° ENE daylight
25 Jun - 07:45:24 10° SSW 07:51:39 62° ESE 07:57:59 10° NE daylight
25 Jun - 09:32:11 10° WSW 09:38:20 47° NW 09:44:33 10° NE daylight
25 Jun - 11:20:50 10° WNW 11:26:15 27° N 11:31:40 10° NE daylight
25 Jun - 13:08:50 10° NW 13:14:32 31° NNE 13:20:08 10° E daylight
25 Jun - 14:55:37 10° NW 15:02:03 67° NE 15:08:19 10° SE daylight
25 Jun - 16:42:22 10° NW 16:48:10 37° WSW 16:53:49 10° S daylight
26 Jun - 06:10:51 10° SSE 06:15:26 21° ESE 06:20:04 10° ENE daylight
26 Jun - 07:54:35 10° SSW 08:00:57 80° SE 08:07:25 10° NE daylight
26 Jun - 09:41:58 10° W 09:47:57 40° NNW 09:53:58 10° NE daylight
26 Jun - 11:30:40 10° WNW 11:36:02 27° N 11:41:23 10° NE daylight
26 Jun - 13:18:22 10° NW 13:24:13 35° NNE 13:30:00 10° E daylight
26 Jun - 15:05:01 10° NW 15:11:28 84° NE 15:17:47 10° SE daylight
26 Jun - 16:52:02 10° NW 16:57:15 27° WSW 17:02:23 10° SSW daylight
